TimeEDT,TemperatureF,Dew PointF,Humidity,Sea Level PressureIn,VisibilityMPH,Wind Direction,Wind SpeedMPH,Gust SpeedMPH,PrecipitationIn,Events,Conditions,WindDirDegrees,DateUTC
12:15 AM,50.0,37.0,61,30.23,10.0,South,4.6,-,N/A,,Overcast,190,2013-03-30 04:15:00
12:35 AM,49.5,37.6,64,30.23,10.0,Calm,Calm,-,N/A,,Overcast,0,2013-03-30 04:35:00
12:55 AM,49.3,37.4,64,30.23,10.0,SSW,4.6,-,N/A,,Overcast,210,2013-03-30 04:55:00
1:15 AM,49.5,37.0,62,30.24,10.0,SW,3.5,-,N/A,,Overcast,220,2013-03-30 05:15:00
1:35 AM,50.0,36.7,60,30.23,10.0,Calm,Calm,-,N/A,,Overcast,0,2013-03-30 05:35:00
1:55 AM,50.4,36.1,58,30.23,10.0,SSW,3.5,-,N/A,,Overcast,200,2013-03-30 05:55:00
2:15 AM,50.5,36.1,58,30.23,10.0,Calm,Calm,-,N/A,,Overcast,0,2013-03-30 06:15:00
2:35 AM,52.2,35.6,53,30.23,10.0,SW,5.8,-,N/A,,Overcast,230,2013-03-30 06:35:00
2:55 AM,52.7,37.2,56,30.23,10.0,SW,4.6,-,N/A,Rain,Light Rain,230,2013-03-30 06:55:00
3:15 AM,51.8,37.8,59,30.22,10.0,SW,3.5,-,N/A,,Drizzle,220,2013-03-30 07:15:00
3:35 AM,50.5,39.4,66,30.21,10.0,Calm,Calm,-,N/A,,Drizzle,0,2013-03-30 07:35:00
3:55 AM,48.4,42.3,79,30.21,10.0,Calm,Calm,-,N/A,,Drizzle,0,2013-03-30 07:55:00
4:15 AM,48.0,42.6,82,30.21,10.0,Calm,Calm,-,N/A,Rain,Light Rain,0,2013-03-30 08:15:00
4:35 AM,47.3,43.9,88,30.21,10.0,Calm,Calm,-,N/A,Rain,Light Rain,0,2013-03-30 08:35:00
4:55 AM,46.4,44.6,93,30.21,10.0,Calm,Calm,-,0.01,Rain,Rain,0,2013-03-30 08:55:00
5:15 AM,46.2,45.0,95,30.21,10.0,Calm,Calm,-,N/A,Rain,Rain,0,2013-03-30 09:15:00
5:35 AM,46.6,45.5,96,30.22,7.0,Calm,Calm,-,N/A,,Drizzle,0,2013-03-30 09:35:00
5:55 AM,46.2,45.1,96,30.23,7.0,Calm,Calm,-,N/A,,Light Drizzle,0,2013-03-30 09:55:00
6:15 AM,46.6,45.0,94,30.23,10.0,Calm,Calm,-,N/A,,Overcast,0,2013-03-30 10:15:00
6:35 AM,46.6,45.1,95,30.23,10.0,Calm,Calm,-,0.01,,Overcast,0,2013-03-30 10:35:00
6:55 AM,47.5,44.2,89,30.24,10.0,Calm,Calm,-,0.01,Rain,Light Rain,0,2013-03-30 10:55:00
7:15 AM,47.5,44.4,89,30.24,10.0,Calm,Calm,-,N/A,,Drizzle,0,2013-03-30 11:15:00
7:35 AM,46.6,45.0,94,30.25,10.0,Calm,Calm,-,N/A,,Drizzle,0,2013-03-30 11:35:00
7:55 AM,46.6,45.5,96,30.25,7.0,Calm,Calm,-,N/A,Rain,Light Rain,0,2013-03-30 11:55:00
8:15 AM,47.3,45.1,92,30.24,10.0,North,3.5,-,N/A,Rain,Light Rain,10,2013-03-30 12:15:00
8:35 AM,48.2,45.7,91,30.24,10.0,Calm,Calm,-,N/A,,Overcast,0,2013-03-30 12:35:00
8:55 AM,49.1,46.6,91,30.25,10.0,Calm,Calm,-,N/A,,Overcast,0,2013-03-30 12:55:00
9:15 AM,49.1,46.0,89,30.25,10.0,Calm,Calm,-,N/A,,Light Drizzle,0,2013-03-30 13:15:00
9:35 AM,49.5,46.2,89,30.24,10.0,Calm,Calm,-,N/A,,Overcast,0,2013-03-30 13:35:00
9:55 AM,50.5,46.8,87,30.24,10.0,NNE,3.5,-,N/A,,Overcast,30,2013-03-30 13:55:00
10:15 AM,50.5,46.6,86,30.23,10.0,Calm,Calm,-,N/A,Rain,Light Rain,0,2013-03-30 14:15:00
10:35 AM,50.9,46.9,86,30.23,10.0,NNE,3.5,-,N/A,,Mostly Cloudy,30,2013-03-30 14:35:00
10:55 AM,51.1,46.9,86,30.23,10.0,NNE,3.5,-,N/A,,Overcast,30,2013-03-30 14:55:00
11:15 AM,50.9,46.6,85,30.22,10.0,NNE,3.5,-,N/A,,Overcast,30,2013-03-30 15:15:00
11:35 AM,51.8,46.9,83,30.22,10.0,Calm,Calm,-,N/A,,Overcast,0,2013-03-30 15:35:00
11:55 AM,52.9,46.4,79,30.22,10.0,ENE,3.5,-,N/A,,Mostly Cloudy,70,2013-03-30 15:55:00
12:15 PM,54.3,46.0,74,30.21,10.0,NNE,5.8,-,N/A,,Mostly Cloudy,30,2013-03-30 16:15:00
12:35 PM,55.4,45.5,69,30.21,10.0,NE,6.9,-,N/A,,Mostly Cloudy,50,2013-03-30 16:35:00
12:55 PM,57.0,46.0,67,30.20,10.0,NE,6.9,-,N/A,,Mostly Cloudy,40,2013-03-30 16:55:00
1:15 PM,57.4,45.3,64,30.19,10.0,East,5.8,-,N/A,,Mostly Cloudy,90,2013-03-30 17:15:00
1:35 PM,57.4,43.3,59,30.18,10.0,East,5.8,-,N/A,,Overcast,90,2013-03-30 17:35:00
1:55 PM,57.9,42.1,56,30.18,10.0,ENE,6.9,-,N/A,,Overcast,70,2013-03-30 17:55:00
2:15 PM,58.3,42.4,56,30.17,10.0,East,5.8,-,N/A,,Mostly Cloudy,90,2013-03-30 18:15:00
2:35 PM,58.6,41.5,53,30.16,10.0,East,5.8,-,N/A,,Mostly Cloudy,90,2013-03-30 18:35:00
2:55 PM,59.7,43.9,56,30.15,10.0,East,3.5,-,N/A,,Scattered Clouds,80,2013-03-30 18:55:00
3:15 PM,61.2,44.6,54,30.14,10.0,East,9.2,-,N/A,,Clear,80,2013-03-30 19:15:00
3:35 PM,62.1,44.4,52,30.13,10.0,East,8.1,-,N/A,,Clear,80,2013-03-30 19:35:00
3:55 PM,62.1,44.6,53,30.13,10.0,ENE,4.6,-,N/A,,Clear,60,2013-03-30 19:55:00
4:15 PM,62.8,44.6,51,30.13,10.0,ESE,5.8,-,N/A,,Clear,120,2013-03-30 20:15:00
4:35 PM,64.4,42.4,45,30.12,10.0,SSE,9.2,-,N/A,,Clear,160,2013-03-30 20:35:00
4:55 PM,64.0,43.0,46,30.12,10.0,SSE,11.5,-,N/A,,Clear,160,2013-03-30 20:55:00
5:15 PM,63.5,43.5,48,30.12,10.0,South,9.2,-,N/A,,Scattered Clouds,190,2013-03-30 21:15:00
5:35 PM,62.8,44.2,51,30.12,10.0,South,6.9,-,N/A,,Clear,170,2013-03-30 21:35:00
5:55 PM,62.4,44.8,52,30.12,10.0,SSE,6.9,-,N/A,,Clear,160,2013-03-30 21:55:00
6:15 PM,62.1,44.8,53,30.12,10.0,South,9.2,-,N/A,,Clear,170,2013-03-30 22:15:00
6:35 PM,61.0,44.8,55,30.12,10.0,South,8.1,-,N/A,,Clear,190,2013-03-30 22:35:00
6:55 PM,60.3,45.3,58,30.13,10.0,South,6.9,-,N/A,,Clear,170,2013-03-30 22:55:00
7:15 PM,58.5,44.8,60,30.12,10.0,SE,3.5,-,N/A,,Clear,140,2013-03-30 23:15:00
7:35 PM,57.4,45.0,63,30.12,10.0,Calm,Calm,-,N/A,,Clear,0,2013-03-30 23:35:00
7:55 PM,56.3,45.1,66,30.13,10.0,SSE,3.5,-,N/A,,Clear,150,2013-03-30 23:55:00
8:15 PM,55.4,45.0,68,30.13,10.0,Calm,Calm,-,N/A,,Clear,0,2013-03-31 00:15:00
8:35 PM,54.3,45.0,71,30.13,10.0,Calm,Calm,-,N/A,,Clear,0,2013-03-31 00:35:00
8:55 PM,53.1,45.0,74,30.13,10.0,Calm,Calm,-,N/A,,Clear,0,2013-03-31 00:55:00
9:15 PM,51.6,45.0,78,30.13,10.0,Calm,Calm,-,N/A,,Clear,0,2013-03-31 01:15:00
9:35 PM,51.1,45.0,80,30.13,10.0,Calm,Calm,-,N/A,,Clear,0,2013-03-31 01:35:00
9:55 PM,52.0,44.2,75,30.14,10.0,Calm,Calm,-,N/A,,Clear,0,2013-03-31 01:55:00
10:15 PM,52.0,43.5,73,30.14,10.0,ESE,3.5,-,N/A,,Clear,110,2013-03-31 02:15:00
10:35 PM,51.4,42.6,72,30.14,10.0,Calm,Calm,-,N/A,,Clear,0,2013-03-31 02:35:00
10:55 PM,51.1,41.4,69,30.14,10.0,East,3.5,-,N/A,,Clear,100,2013-03-31 02:55:00
11:15 PM,50.0,41.0,71,30.13,10.0,Calm,Calm,-,N/A,,Clear,0,2013-03-31 03:15:00
11:35 PM,49.5,41.0,73,30.13,10.0,Calm,Calm,-,N/A,,Clear,0,2013-03-31 03:35:00
11:55 PM,50.7,40.3,67,30.13,10.0,Calm,Calm,-,N/A,,Clear,0,2013-03-31 03:55:00